"Pseudo-MPEC" for P10U8zn

Created 2019 Nov 13 10:07:11 UT using Find_Orb

Click here for an explanation of pseudo-MPECs

 
 Astrometry: 
     P10U8zn  C2019 11 044\YAstrometry.)0)KV%QUWp`h2kyl\OK/w#D;7Nyc8\5nQEKI(sF51
     P10U8zn  C2019 11 04:J,_JRvS#+P[)EL0MMebYredacted;$nXOq21k\Qf,)b_`GiAQhHF51
     P10U8zn  C2019 11 04;;Nhj+9ISKRJ^dodFF*,click)lEjnhey03:K;\+,AxUNI-S-KHLF51
     P10U8zn |C2019 11 06Ko01RWVBKx.J.u37rwvpRJt9#[?L-jurMO2Je2$s-Baxv3uL^'wX807
     P10U8zn |C2019 11 06u9:!*Us,]Hs-^?Z1r%R`T%D\VWVoq7JUlwOy56!MU[^671oDqI#;807
     P10U8zn |C2019 11 06_Yqhere5fgkwMh9forh(mCUY98JJexplanation-nA1q6p*-gttT807

Station data:
(807) Cerro Tololo Observatory, La Serena  (S30.169136 W70.805900)  Chile.
(F51) Pan-STARRS 1, Haleakala  (N20.707235 W156.255910)  US/Hawaii.
   Observers N. Primak, A. Schultz, S. Watters, J. Thiel, T. Goggia. Measurer
   PS1 Science Consortium. 1.8-m Ritchey-Chrétien + CCD.

Orbital elements:  P10U8zn
   Perihelion 2020 Feb 6.351392 +/- 4.26 TT =  8:26:00 (JD 2458885.851392)
Epoch 2019 Nov  6.0 TT = JDT 2458793.5   Earth MOID: 0.0168   AutoNEOCP
M 299.82872859 +/- 7                (J2000 ecliptic)
n   0.65154699 +/- 0.0626           Peri.  290.58062 +/- 2.4
a   1.31776778 +/- 0.0844           Node   215.69795 +/- 0.13
e   0.3876851 +/- 0.0446            Incl.   24.73510 +/- 3.8
P   1.51/552.52d           H 23.2   G  0.15   U 10.9  
q 0.80688884 +/- 0.0138    Q 1.82864672 +/- 0.174
From 6 observations 2019 Nov. 4-6 (42.5 hr); mean residual 0".24
Residuals in arcseconds: 
191104 F51  .07+  .02-    191104 F51  .11-  .21+    191106 807  .19-  .08-    
191104 F51  .05+  .19-    191106 807  .38-  .12-    191106 807  .57+  .20+    

Ephemerides (geocentric):
Date (UTC) HH   RA              Dec         delta   r     elong  mag " sig PA
---- -- -- --  -------------   -----------  ------ ------ -----  --- ---- ---
2019 11 13 10  01 52 03.405   -11 09 55.58  .24990 1.2027 144.9 21.8  333  13
2019 11 13 11  01 51 58.038   -11 14 27.83  .24987 1.2024 144.8 21.8  337  13
2019 11 13 12  01 51 52.672   -11 19 00.05  .24984 1.2022 144.7 21.8  340  13
2019 11 13 13  01 51 47.305   -11 23 32.24  .24981 1.2019 144.6 21.8  343  13
2019 11 13 14  01 51 41.938   -11 28 04.40  .24978 1.2016 144.5 21.8  347  13
2019 11 13 15  01 51 36.571   -11 32 36.52  .24975 1.2014 144.4 21.8  350  13
2019 11 13 16  01 51 31.205   -11 37 08.61  .24972 1.2011 144.3 21.8  354  13
2019 11 13 17  01 51 25.838   -11 41 40.66  .24969 1.2009 144.1 21.8  357  13
2019 11 13 18  01 51 20.472   -11 46 12.67  .24967 1.2006 144.0 21.8  361  13
2019 11 13 19  01 51 15.106   -11 50 44.64  .24964 1.2004 143.9 21.8  364  13
2019 11 13 20  01 51 09.740   -11 55 16.57  .24962 1.2001 143.8 21.8  367  13
2019 11 13 21  01 51 04.374   -11 59 48.46  .24959 1.1998 143.7 21.8  371  13
2019 11 13 22  01 50 59.008   -12 04 20.30  .24957 1.1996 143.6 21.8  374  13
2019 11 13 23  01 50 53.643   -12 08 52.10  .24954 1.1993 143.5 21.8  378  13
2019 11 14 00  01 50 48.278   -12 13 23.85  .24952 1.1991 143.4 21.9  382  13
2019 11 14 01  01 50 42.913   -12 17 55.55  .24950 1.1988 143.3 21.9  385  13
2019 11 14 02  01 50 37.549   -12 22 27.20  .24948 1.1985 143.2 21.9  389  13
2019 11 14 03  01 50 32.184   -12 26 58.80  .24945 1.1983 143.1 21.9  392  13
2019 11 14 04  01 50 26.820   -12 31 30.34  .24943 1.1980 143.0 21.9  396  13
2019 11 14 05  01 50 21.457   -12 36 01.83  .24941 1.1978 142.9 21.9  399  13
2019 11 14 06  01 50 16.093   -12 40 33.27  .24939 1.1975 142.8 21.9  403  13
2019 11 14 07  01 50 10.730   -12 45 04.65  .24937 1.1972 142.6 21.9  407  13
2019 11 14 08  01 50 05.368   -12 49 35.97  .24935 1.1970 142.5 21.9  410  13
2019 11 14 09  01 50 00.005   -12 54 07.23  .24934 1.1967 142.4 21.9  414  13
2019 11 14 10  01 49 54.644   -12 58 38.43  .24932 1.1965 142.3 21.9  418  13
2019 11 14 11  01 49 49.282   -13 03 09.56  .24930 1.1962 142.2 21.9  421  13
2019 11 14 12  01 49 43.921   -13 07 40.63  .24929 1.1960 142.1 21.9  425  13
2019 11 14 13  01 49 38.560   -13 12 11.64  .24927 1.1957 142.0 21.9  429  13
2019 11 14 14  01 49 33.200   -13 16 42.57  .24926 1.1954 141.9 21.9  433  13
2019 11 14 15  01 49 27.841   -13 21 13.44  .24924 1.1952 141.8 21.9  436  13
2019 11 14 16  01 49 22.482   -13 25 44.24  .24923 1.1949 141.7 21.9  440  13
2019 11 14 17  01 49 17.123   -13 30 14.97  .24921 1.1947 141.6 21.9  444  13
2019 11 14 18  01 49 11.765   -13 34 45.62  .24920 1.1944 141.5 21.9  448  13
2019 11 14 19  01 49 06.407   -13 39 16.20  .24919 1.1941 141.4 21.9  451  13
2019 11 14 20  01 49 01.050   -13 43 46.70  .24918 1.1939 141.3 21.9  455  13
2019 11 14 21  01 48 55.694   -13 48 17.13  .24917 1.1936 141.2 21.9  459  13
2019 11 14 22  01 48 50.338   -13 52 47.48  .24915 1.1934 141.0 21.9  463  13
2019 11 14 23  01 48 44.983   -13 57 17.75  .24914 1.1931 140.9 21.9  467  13
2019 11 15 00  01 48 39.628   -14 01 47.93  .24913 1.1928 140.8 21.9  471  13
2019 11 15 01  01 48 34.274   -14 06 18.04  .24913 1.1926 140.7 21.9  475  13
2019 11 15 02  01 48 28.920   -14 10 48.06  .24912 1.1923 140.6 21.9  478  13
2019 11 15 03  01 48 23.568   -14 15 17.99  .24911 1.1921 140.5 21.9  482  13
2019 11 15 04  01 48 18.216   -14 19 47.84  .24910 1.1918 140.4 21.9  486  13
2019 11 15 05  01 48 12.864   -14 24 17.60  .24910 1.1915 140.3 21.9  490  13
2019 11 15 06  01 48 07.514   -14 28 47.27  .24909 1.1913 140.2 21.9  494  13
2019 11 15 07  01 48 02.164   -14 33 16.85  .24908 1.1910 140.1 21.9  498  13
2019 11 15 08  01 47 56.814   -14 37 46.34  .24908 1.1908 140.0 21.9  502  13
2019 11 15 09  01 47 51.466   -14 42 15.73  .24907 1.1905 139.9 21.9  506  13